Home   Weather   Dubai   Past weeks
Flag for United Arab Emirates

Past Weather in Dubai, Dubai, United Arab Emirates — Yesterday and Last 2 Weeks

Now
90 °F

Passing clouds.


Feels Like: 92 °F
Forecast: 91 / 80 °F
Wind: 6 mph from South

Location: Dubai International Airport

Current Time: Oct 16, 2019 at 9:52:22 am

Latest Report: Oct 16, 2019 at 9:00 am


Visibility: N/A

Pressure: 29.98 "Hg

Humidity: 46%

Dew Point: 66 °F

Location of DubaiLocation

Past Weather in Dubai — Graph

°F

Dubai Temperature Yesterday

Maximum temperature yesterday: 97 °F (at 1:00 pm)
Minimum temperature yesterday: 81 °F (at 5:00 am)
Average temperature yesterday: 89 °F

High & Low Weather Summary for the Past Weeks

 TemperatureHumidityPressure
High104 °F (Oct 4, 1:00 pm)84% (Oct 12, 2:00 am)30.01 "Hg (Oct 12, 2:00 am)
Low79 °F (Oct 16, 7:00 am)16% (Oct 12, 12:00 pm)29.68 "Hg (Oct 1, 5:00 pm)
Average91 °F56%29.82 "Hg
* Reported Oct 1 8:00 am — Oct 16 8:00 am, Dubai. Weather by CustomWeather, © 2019

Note: Actual official high and low records may vary slightly from our data, if they occured in-between our weather recording intervals... More about our weather records

Advertising

Dubai Weather History for the Previous 24 Hours

Scroll right to see more
 ConditionsComfort  
Time TempWeatherWind HumidityBarometerVisibility
8:00 am
Wed, Oct 16
82 °FPassing clouds.3 mph74%29.98 "HgN/A
7:00 am79 °FClear.3 mph84%29.95 "Hg4 mi
6:00 am81 °FPassing clouds.6 mph84%29.92 "HgN/A
5:00 am81 °FPassing clouds.6 mph79%29.92 "HgN/A
4:00 am82 °FPassing clouds.6 mph79%29.92 "HgN/A
3:00 am82 °FClear.8 mph79%29.92 "Hg10 mi
2:00 am86 °FPassing clouds.5 mph70%29.89 "HgN/A
1:00 am86 °FPassing clouds.3 mph66%29.92 "HgN/A
12:00 am88 °FPassing clouds.7 mph62%29.92 "HgN/A
11:00 pm
Tue, Oct 15
86 °FPassing clouds.5 mph66%29.92 "HgN/A
10:00 pm88 °FPassing clouds.6 mph62%29.92 "HgN/A
9:00 pm88 °FClear.5 mph59%29.92 "Hg10 mi
8:00 pm88 °FClear.6 mph62%29.92 "Hg10 mi
7:00 pm90 °FPassing clouds.7 mph55%29.89 "HgN/A
6:00 pm90 °FClear.10 mph55%29.89 "Hg10 mi
5:00 pm91 °FPassing clouds.14 mph46%29.89 "HgN/A
4:00 pm93 °FSunny.16 mph44%29.89 "Hg10 mi
3:00 pm95 °FPassing clouds.15 mph34%29.89 "HgN/A
2:00 pm95 °FPassing clouds.9 mph36%29.92 "HgN/A
1:15 pm97 °FPassing clouds.12 mph34%29.92 "HgN/A
1:00 pm97 °FPassing clouds.5 mph27%29.92 "HgN/A
12:00 pm95 °FSunny.3 mph34%29.95 "Hg10 mi
11:00 am93 °FPassing clouds.7 mph41%29.98 "HgN/A
10:00 am90 °FSunny.9 mph52%29.98 "Hg10 mi
9:00 am86 °FPassing clouds.12 mph55%29.98 "HgN/A
Weather by CustomWeather, © 2019

See weather overview